Probability
32 35 32 32 35 32 32 35 32 13 19 26 29 32 32 32 16 23 26 6 3 0 0 0 0 0 3 3 0 0 0 3 3 3 6 16 16 23
42 39 39 26 23 26 26 32 32 29 13 23 35 23 32 23 13 23 23 10 3 0 0 0 0 0 0 0 0 0 0 0 0 0 0 0 3 6
42 39 35 35 26 29 29 29 32 32 32 29 23 19 32 32 26 23 23 23 16 3 0 3 0 0 0 0 0 0 0 0 0 0 0 0 0 0
39 35 35 26 23 26 29 26 29 32 29 29 26 23 29 29 29 23 19 13 19 3 3 0 0 0 0 0 0 0 0 0 0 0 0 0 0 0
39 39 26 26 23 23 19 19 26 23 29 32 26 32 23 26 26 19 19 19 10 0 0 0 0 0 0 0 0 0 0 0 0 0 0 0 0 0
35 32 26 23 23 19 19 19 19 19 23 19 19 26 26 23 19 16 16 13 13 13 0 0 0 0 0 0 0 0 0 0 0 0 0 0 0 0
29 29 23 19 19 16 16 19 16 13 16 13 10 16 19 16 13 16 13 13 13 13 13 6 6 0 0 0 0 0 0 0 0 0 0 0 0 0
29 23 16 16 13 6 6 6 6 13 13 13 13 13 19 13 16 10 6 6 10 13 13 16 10 10 6 3 0 0 0 0 0 0 0 0 0 0
19 19 13 13 13 16 10 6 6 6 6 16 13 13 13 13 19 13 16 10 13 13 13 13 10 6 6 0 0 0 0 0 0 0 0 0 0 0
16 16 16 13 13 13 16 16 13 13 10 10 19 23 16 16 16 16 19 23 16 16 13 13 6 10 3 0 0 0 0 0 0 0 0 0 0 0
16 16 16 16 13 10 13 13 16 16 10 6 6 10 6 6 3 13 13 3 6 10 13 10 10 6 3 3 0 0 0 0 0 0 0 0 0 0
13 13 13 13 13 6 13 13 13 16 16 16 10 10 6 3 0 13 10 3 3 6 10 13 10 3 0 0 0 0 0 0 0 0 0 0 0 0
10 10 16 10 6 0 6 13 13 10 13 13 16 13 13 13 13 3 10 6 3 3 3 13 10 10 3 0 3 3 0 0 0 0 0 0 0 0
6 16 13 6 3 0 0 6 3 3 6 10 6 10 10 13 10 6 10 10 10 6 10 6 6 10 6 6 6 6 0 3 3 3 3 0 0 0
10 6 3 0 0 0 0 0 0 3 3 3 3 6 13 10 10 10 6 10 10 6 6 6 6 6 10 6 3 3 6 0 3 3 3 3 0 0
3 3 0 0 0 3 0 0 3 3 3 3 10 3 0 10 10 6 6 10 6 6 6 6 6 6 6 10 6 3 6 6 3 0 0 3 3 3
3 3 3 3 6 6 10 10 10 10 6 6 6 3 0 3 6 10 6 3 3 3 6 6 3 6 6 6 3 6 6 6 6 6 6 0 0 3
0 3 0 3 3 3 3 6 6 6 6 3 3 6 3 3 6 0 0 0 3 0 0 0 6 3 3 0 0 3 3 3 6 0 0 0 0 0
0 3 3 6 3 6 6 6 6 6 10 10 6 6 3 3 0 0 3 0 0 0 0 0 0 0 0 0 0 0 3 3 6 3 3 3 0 0
0 0 0 0 3 3 3 3 6 10 10 6 6 3 3 0 3 0 0 0 0 0 0 0 0 0 0 0 0 0 0 0 3 3 3 3 3 0
0 0 0 0 0 3 3 3 6 6 6 6 6 3 3 0 0 0 0 0 0 0 0 0 0 0 0 0 0 0 0 0 0 6 3 3 3 3
0 0 0 3 3 3 3 6 6 6 6 6 6 6 3 3 0 0 0 0 0 0 0 0 0 0 0 0 0 0 0 0 0 0 0 0 0 0
3 3 6 3 6 6 6 3 6 6 6 6 3 3 3 3 3 0 0 0 0 0 0 0 0 0 0 0 0 0 0 0 3 0 0 0 0 0
Height
5852 5851 5849 5848 5846 5845 5843 5842 5842 5840 5840 5838 5837 5836 5835 5834 5833 5832 5831 5830 5830 5830 5830 5829 5829 5829 5830 5830 5830 5830 5831 5831 5832 5832 5833 5834 5834 5835
5846 5845 5844 5842 5840 5839 5838 5836 5835 5834 5833 5832 5831 5830 5828 5827 5826 5825 5824 5823 5823 5822 5822 5822 5822 5822 5822 5822 5822 5822 5823 5823 5824 5824 5825 5825 5826 5827
5840 5839 5838 5836 5834 5833 5831 5830 5829 5827 5826 5825 5824 5823 5821 5820 5819 5818 5817 5816 5816 5815 5815 5814 5814 5814 5814 5814 5814 5814 5814 5815 5815 5816 5816 5817 5818 5818
5834 5832 5831 5829 5828 5826 5825 5823 5822 5820 5819 5818 5817 5815 5814 5813 5811 5810 5809 5808 5808 5807 5807 5806 5806 5806 5805 5805 5805 5805 5805 5806 5806 5807 5807 5808 5808 5809
5827 5825 5824 5822 5821 5819 5818 5816 5815 5813 5811 5810 5809 5807 5806 5805 5804 5803 5801 5801 5800 5799 5798 5798 5797 5797 5797 5796 5796 5796 5796 5796 5797 5797 5798 5798 5799 5800
5819 5818 5816 5815 5813 5812 5810 5809 5807 5805 5804 5802 5800 5799 5797 5796 5795 5794 5793 5792 5791 5791 5790 5789 5788 5788 5788 5787 5787 5787 5787 5787 5787 5787 5788 5788 5789 5790
5811 5810 5808 5807 5805 5804 5802 5801 5799 5797 5795 5794 5792 5791 5789 5788 5787 5785 5784 5783 5782 5781 5781 5780 5779 5778 5778 5778 5777 5777 5777 5777 5777 5777 5778 5778 5779 5780
5803 5802 5800 5799 5797 5795 5794 5792 5790 5788 5787 5785 5783 5782 5781 5779 5778 5776 5775 5774 5773 5773 5771 5770 5769 5768 5768 5768 5767 5767 5767 5766 5767 5767 5768 5768 5769 5770
5794 5793 5791 5790 5788 5786 5785 5783 5782 5780 5778 5776 5775 5773 5771 5770 5769 5767 5765 5764 5763 5762 5761 5760 5759 5758 5758 5757 5757 5757 5756 5756 5756 5757 5757 5758 5759 5760
5786 5784 5782 5780 5779 5777 5775 5774 5772 5770 5769 5767 5765 5763 5762 5760 5759 5757 5755 5754 5753 5751 5750 5749 5749 5748 5747 5747 5746 5746 5746 5746 5746 5746 5747 5748 5748 5749
5777 5775 5773 5772 5770 5768 5766 5764 5763 5761 5759 5757 5756 5754 5752 5750 5748 5747 5745 5743 5742 5741 5740 5739 5738 5738 5737 5736 5736 5735 5735 5735 5735 5735 5736 5737 5738 5739
5768 5766 5764 5762 5760 5758 5756 5755 5753 5751 5749 5747 5745 5744 5742 5740 5738 5736 5734 5733 5732 5731 5729 5728 5728 5727 5727 5726 5726 5725 5725 5725 5724 5725 5725 5726 5727 5728
5758 5756 5755 5753 5751 5748 5746 5745 5743 5741 5739 5737 5735 5733 5731 5729 5728 5726 5724 5722 5721 5720 5719 5718 5717 5717 5716 5716 5715 5714 5714 5714 5714 5715 5715 5716 5716 5718
5749 5747 5745 5743 5741 5738 5736 5734 5732 5730 5728 5727 5725 5723 5721 5719 5718 5716 5715 5713 5711 5710 5709 5708 5707 5707 5706 5705 5705 5704 5704 5704 5704 5704 5705 5705 5706 5708
5738 5736 5734 5732 5730 5728 5726 5724 5722 5720 5718 5717 5715 5713 5711 5710 5708 5707 5705 5703 5701 5700 5699 5698 5698 5697 5696 5696 5695 5695 5695 5694 5694 5694 5694 5695 5696 5698
5727 5725 5723 5721 5719 5717 5716 5714 5712 5710 5708 5707 5705 5704 5702 5700 5699 5697 5696 5694 5692 5691 5690 5689 5688 5687 5686 5686 5685 5685 5685 5684 5684 5684 5685 5686 5687 5688
5716 5714 5713 5711 5709 5707 5706 5704 5702 5700 5699 5697 5695 5694 5692 5691 5689 5688 5686 5685 5683 5682 5681 5680 5679 5678 5677 5676 5676 5675 5675 5675 5675 5675 5676 5677 5678 5679
5707 5705 5703 5701 5699 5697 5696 5694 5692 5691 5689 5687 5686 5684 5683 5682 5680 5679 5677 5676 5674 5672 5671 5670 5669 5669 5668 5667 5667 5666 5666 5666 5666 5666 5667 5668 5669 5670
5696 5695 5693 5691 5689 5687 5686 5684 5683 5681 5680 5678 5677 5675 5674 5672 5671 5670 5668 5667 5665 5664 5662 5661 5660 5659 5659 5658 5658 5657 5657 5657 5657 5658 5659 5660 5661 5662
5686 5685 5683 5681 5679 5678 5676 5675 5674 5672 5671 5669 5668 5666 5665 5663 5662 5661 5659 5658 5657 5655 5654 5652 5651 5650 5649 5649 5649 5649 5649 5649 5649 5650 5651 5652 5653 5654
5677 5675 5674 5672 5670 5669 5667 5666 5665 5663 5662 5660 5659 5657 5656 5654 5653 5652 5651 5650 5648 5647 5645 5644 5643 5642 5641 5641 5641 5641 5641 5641 5641 5642 5643 5644 5645 5646
5668 5666 5665 5663 5661 5660 5658 5657 5656 5654 5653 5651 5650 5648 5647 5646 5645 5644 5642 5641 5640 5638 5637 5636 5635 5634 5634 5633 5633 5633 5633 5633 5633 5634 5635 5636 5637 5638
5659 5658 5656 5654 5653 5651 5650 5648 5647 5646 5644 5643 5641 5640 5638 5637 5637 5636 5634 5633 5631 5630 5629 5628 5627 5627 5626 5625 5625 5625 5625 5625 5625 5626 5627 5628 5630 5631
Wind_Speed
19 19 19 19 20 20 21 21 21 21 21 22 22 23 24 25 24 24 24 25 25 25 26 26 27 27 27 28 28 28 28 28 29 29 29 28 28 28
22 22 21 21 21 22 22 22 22 22 22 22 24 24 25 26 26 26 25 25 26 26 26 27 27 26 27 28 28 29 29 29 29 29 29 30 31 31
24 23 23 23 23 23 23 24 24 24 24 24 25 25 26 26 26 26 27 27 27 27 26 27 27 27 28 28 29 29 30 30 30 31 31 31 30 31
25 25 24 24 25 25 25 26 26 26 26 25 26 26 26 26 26 26 27 27 28 29 29 29 29 29 30 30 30 31 31 31 31 32 32 32 32 31
25 25 25 26 26 26 27 27 27 27 27 28 28 28 28 27 27 27 28 28 29 29 30 30 31 31 31 31 32 32 32 32 33 33 33 33 32 33
26 26 27 27 27 28 29 28 28 28 29 29 29 29 28 28 28 28 28 29 29 30 30 31 31 32 31 31 32 32 32 33 33 34 34 34 34 34
27 28 28 28 29 29 29 29 30 30 30 30 30 29 29 29 29 29 29 30 30 30 31 32 32 33 32 32 31 32 32 33 33 33 34 34 35 35
29 29 29 30 30 30 30 30 30 30 30 30 31 31 30 30 30 30 30 30 31 32 32 33 33 33 33 33 33 32 33 33 33 33 33 33 34 34
30 30 31 31 31 30 31 31 31 31 31 31 31 31 31 31 31 31 32 32 33 32 33 33 33 33 34 33 33 33 34 33 33 33 33 33 33 33
32 32 32 31 31 32 32 33 33 32 31 31 32 32 33 32 32 32 32 33 33 34 33 33 33 33 33 33 33 33 34 34 33 34 34 33 33 33
32 32 32 32 33 33 33 33 33 32 32 33 33 33 33 33 33 33 33 34 33 33 34 34 33 33 33 32 33 33 33 33 34 34 34 34 33 33
32 32 32 32 32 33 33 33 33 33 33 33 33 33 33 34 34 34 34 34 33 33 34 33 33 33 33 32 33 33 33 33 33 32 32 33 33 33
33 32 33 33 33 33 34 34 33 33 33 33 33 32 32 32 33 33 33 33 33 32 33 33 32 32 32 32 32 31 32 32 32 32 32 32 32 32
34 34 34 34 34 34 34 34 34 33 33 33 32 32 31 30 30 30 30 31 31 31 31 31 31 31 31 32 31 31 30 31 32 32 32 32 32 32
35 35 34 34 34 34 34 34 34 33 33 32 31 31 30 29 29 29 29 29 30 30 30 30 30 31 31 31 31 30 30 30 31 30 30 30 31 31
35 34 34 33 33 33 33 33 33 33 32 32 31 31 30 29 28 28 28 29 29 29 30 30 29 30 30 30 30 29 29 29 29 29 29 30 30 30
33 33 32 32 32 32 32 32 31 31 31 31 30 29 29 29 28 28 28 29 29 29 29 30 30 29 30 30 29 29 28 28 28 28 28 28 29 30
32 32 32 32 32 31 31 31 31 31 30 30 29 29 29 29 29 29 29 29 29 29 30 30 29 29 28 28 28 27 27 27 27 27 27 27 27 28
31 30 30 30 30 30 30 30 29 29 29 29 28 29 29 28 28 28 28 28 28 28 28 28 28 28 28 27 26 26 26 26 26 26 26 26 26 26
30 29 29 29 29 29 28 28 28 28 28 28 28 28 28 28 28 28 28 28 28 27 27 26 26 26 26 25 25 24 25 25 25 25 25 25 25 25
28 28 28 28 27 27 27 28 28 27 27 27 27 27 27 27 27 27 27 27 28 27 27 26 25 25 24 24 24 24 24 25 25 25 25 25 25 25
27 27 27 26 26 27 27 27 27 26 26 26 26 26 26 26 26 26 26 27 27 27 26 25 25 25 24 24 24 24 23 23 23 24 25 25 24 24
25 25 25 25 26 27 27 26 26 25 25 25 25 25 25 25 25 25 26 26 26 26 25 24 24 24 24 24 23 23 22 22 22 23 24 24 24 23
Wind_Direction
290 290 287 287 287 286 284 284 284 282 282 282 282 280 279 279 278 278 278 276 273 272 270 269 269 267 266 266 266 266 264 263 263 262 262 261 261 261
287 287 287 287 287 286 284 283 284 283 282 282 282 281 281 280 279 279 277 276 276 275 272 269 268 267 267 268 267 266 266 264 264 264 263 263 262 261
288 287 287 287 286 287 285 283 283 283 282 282 282 281 280 280 279 278 277 276 275 275 273 271 270 270 270 269 269 268 267 266 265 264 264 264 264 263
286 286 286 286 286 287 286 285 284 284 283 282 283 282 281 280 279 279 278 277 277 275 273 272 271 271 272 271 270 270 268 266 265 264 264 264 264 264
285 284 285 286 287 287 288 288 286 286 286 285 283 281 280 280 279 279 279 278 278 277 275 273 272 272 272 272 272 271 269 268 266 265 264 264 263 263
286 284 285 285 286 286 286 287 287 287 286 286 285 282 281 280 280 280 281 280 278 278 277 275 274 273 273 273 271 270 270 268 267 265 264 263 263 263
285 285 285 286 286 285 286 286 286 285 285 285 285 283 282 282 283 282 281 280 279 278 278 277 276 275 274 274 272 271 270 268 266 265 264 263 263 263
287 287 286 286 286 285 286 286 285 285 284 284 284 284 283 283 284 282 282 281 281 279 279 278 277 275 275 275 273 272 271 268 266 265 264 263 263 263
286 286 286 286 285 285 285 286 285 284 284 284 284 284 283 283 282 282 282 282 281 281 280 278 277 277 275 274 274 272 272 269 267 265 264 263 263 262
284 285 285 284 283 283 282 284 285 285 285 285 285 285 283 282 282 282 283 283 282 282 281 280 278 277 275 274 274 272 271 269 268 267 265 265 263 262
283 283 282 282 282 282 283 284 285 285 285 286 285 284 282 282 282 282 282 282 281 280 279 278 277 276 275 274 274 272 270 269 269 268 267 265 264 262
285 284 283 283 283 283 284 285 285 285 285 286 286 284 282 282 283 284 283 282 280 279 278 278 278 276 275 275 274 273 270 268 268 267 265 265 263 261
286 286 285 285 286 285 285 285 285 285 285 287 287 285 284 282 282 283 284 283 280 279 278 278 278 277 276 275 275 274 271 269 267 265 264 263 262 260
286 286 285 285 286 285 285 284 285 284 285 286 286 286 285 284 283 283 283 282 281 280 279 278 278 276 276 276 274 273 272 270 268 265 264 262 261 260
285 285 285 285 285 284 284 284 283 284 284 284 284 285 284 282 281 282 282 282 281 280 278 278 278 277 276 275 274 272 271 269 267 265 264 261 260 259
285 285 285 284 284 284 284 284 284 283 284 284 284 283 282 281 281 282 283 283 282 280 278 278 279 278 276 275 274 272 271 269 266 265 263 261 259 259
286 286 285 285 285 285 284 284 284 284 284 284 284 283 282 281 281 282 283 283 282 279 278 279 279 279 278 275 272 271 271 270 268 265 263 262 260 259
286 287 287 286 284 283 284 283 283 283 284 284 283 283 283 282 282 282 283 284 283 281 279 279 278 278 279 276 273 271 270 270 268 266 263 262 260 259
285 286 287 286 285 285 284 283 284 283 283 283 283 283 282 282 282 283 284 284 284 284 283 282 279 277 278 275 272 271 270 269 266 264 262 262 260 260
287 286 286 286 286 285 284 284 284 283 283 283 283 283 282 282 283 283 284 284 284 284 283 284 283 279 277 274 273 271 270 268 266 264 261 261 260 260
288 287 286 285 284 285 284 284 283 283 283 284 284 284 283 283 283 283 283 283 283 284 283 282 281 279 277 274 273 270 269 268 264 261 261 261 260 260
286 285 285 285 285 285 284 284 283 282 283 285 286 286 284 282 282 283 283 283 283 282 281 279 279 278 277 275 272 269 267 265 261 259 260 261 260 259
284 285 286 286 287 286 285 284 283 282 283 284 286 287 286 284 283 282 283 283 282 280 280 279 278 276 275 274 271 268 266 266 262 259 259 259 259 258